Oak Ridge, TN

2:35 AM EST on February 21, 2018 (GMT -0500)
Oak Ridge

Weather History for KOQT - January, 2013

Change the Weather History Date:

Saturday, January 26, 2013

  Actual Average (KTYS) Record (KTYS)
Temperature  
Mean Temperature 37 °F -  
Max Temperature 44 °F 46 °F 74 °F (1950)
Min Temperature 30 °F 27 °F 5 °F (1940)
Degree Days  
Heating Degree Days 28    
Moisture  
Dew Point 31 °F    
Average Humidity 86    
Maximum Humidity 96    
Minimum Humidity 63    
Precipitation  
Precipitation 0.00 in - - ()
Sea Level Pressure  
Sea Level Pressure 30.29 in    
Wind  
Wind Speed 1 mph (East)    
Max Wind Speed 6 mph    
Max Gust Speed -    
Visibility 5 miles    
Events Fog    
Averages and records for this station are not official NWS values.
T = Trace of Precipitation, MM = Missing Value Source: NWS Daily Summary

Daily Weather History Graph

Daily Weather History Graph

Search for Another Location

Airport or City:

Trip Planner

Search our weather history database for the weather conditions in past years. The results will help you decide how hot, cold, wet, or windy it might be!

Date:

Astronomy

Jan. 26, 2013 Rise Set
Actual Time 7:41 AM EST 5:57 PM EST
Civil Twilight 7:14 AM EST 6:25 PM EST
Nautical Twilight 6:43 AM EST 6:56 PM EST
Astronomical Twilight 6:13 AM EST 7:26 PM EST
Moon 5:50 PM EST (1/26) 6:59 AM EST (1/26)
Length of Visible Light 11h 10m
Length of Day
10h 16m
Full, 100% of the Moon is Illuminated
Jan 26
Full
Jan 26
Full
Feb 3
Last Quarter
Feb 10
New
Feb 17
First Quarter

Hourly Weather History & Observations

Time (EST) Temp. Windchill Dew Point Humidity Pressure Visibility Wind Dir Wind Speed Gust Speed Precip Events Conditions
12:03 AM 33.8 °F 30.8 °F 30.2 °F 87% 30.19 in 3.0 mi WSW 3.5 mph - N/A   Mostly Cloudy
12:10 AM 33.8 °F 30.8 °F 30.2 °F 87% 30.19 in 3.0 mi West 3.5 mph - N/A   Mostly Cloudy
12:19 AM 33.8 °F 29.6 °F 30.2 °F 87% 30.19 in 4.0 mi Variable 4.6 mph - N/A   Scattered Clouds
12:53 AM 33.1 °F - 30.9 °F 92% 30.24 in 4.0 mi Calm Calm - N/A   Clear
1:02 AM 33.8 °F - 30.2 °F 87% 30.19 in 3.0 mi Calm Calm - N/A   Scattered Clouds
1:17 AM 32.0 °F - 30.2 °F 93% 30.20 in 3.0 mi Calm Calm - N/A   Mostly Cloudy
1:25 AM 32.0 °F - 30.2 °F 93% 30.20 in 2.5 mi Calm Calm - N/A   Overcast
1:45 AM 33.8 °F - 30.2 °F 87% 30.21 in 1.5 mi Calm Calm - N/A   Overcast
1:53 AM 33.1 °F - 30.9 °F 92% 30.26 in 2.0 mi Calm Calm - N/A   Overcast
2:06 AM 33.8 °F - 30.2 °F 87% 30.22 in 1.5 mi Calm Calm - N/A   Overcast
2:46 AM 33.8 °F - 30.2 °F 87% 30.23 in 2.5 mi Calm Calm - N/A   Overcast
2:53 AM 33.1 °F - 30.9 °F 92% 30.28 in 4.0 mi Calm Calm - N/A   Overcast
3:17 AM 33.8 °F - 30.2 °F 87% 30.24 in 2.0 mi Calm Calm - N/A   Overcast
3:26 AM 33.8 °F - 30.2 °F 87% 30.24 in 1.5 mi Calm Calm - N/A   Overcast
3:53 AM 33.1 °F - 30.9 °F 92% 30.29 in 1.0 mi Calm Calm - N/A   Overcast
4:11 AM 32.0 °F - 30.2 °F 93% 30.23 in 0.5 mi Calm Calm - N/A Fog Fog
4:53 AM 32.0 °F - 30.9 °F 96% 30.30 in 0.5 mi Calm Calm - N/A Fog Fog
5:53 AM 32.0 °F - 30.9 °F 96% 30.31 in 0.8 mi Calm Calm - N/A   Mist
6:25 AM 32.0 °F - 30.2 °F 93% 30.26 in 1.5 mi Calm Calm - N/A   Overcast
6:42 AM 32.0 °F - 30.2 °F 93% 30.27 in 0.8 mi Calm Calm - N/A   Mist
6:53 AM 32.0 °F - 30.0 °F 92% 30.32 in 0.8 mi Calm Calm - N/A   Mist
7:02 AM 32.0 °F - 30.2 °F 93% 30.27 in 1.0 mi Calm Calm - N/A   Mist
7:25 AM 32.0 °F - 30.2 °F 93% 30.27 in 2.5 mi Calm Calm - N/A   Overcast
7:42 AM 32.0 °F - 30.2 °F 93% 30.27 in 4.0 mi Calm Calm - N/A   Overcast
7:53 AM 32.0 °F - 30.9 °F 96% 30.32 in 3.0 mi Calm Calm - N/A   Overcast
8:03 AM 32.0 °F - 30.2 °F 93% 30.28 in 3.0 mi Calm Calm - N/A   Overcast
8:53 AM 33.1 °F - 30.9 °F 92% 30.34 in 4.0 mi Calm Calm - N/A   Overcast
9:53 AM 33.1 °F - 30.9 °F 92% 30.35 in 6.0 mi Calm Calm - N/A   Mostly Cloudy
10:03 AM 33.8 °F - 30.2 °F 87% 30.31 in 6.0 mi Calm Calm - N/A   Scattered Clouds
10:53 AM 36.0 °F - 32.0 °F 86% 30.36 in 8.0 mi Calm Calm - N/A   Scattered Clouds
11:09 AM 35.6 °F - 32.0 °F 87% 30.32 in 9.0 mi Calm Calm - N/A   Mostly Cloudy
11:53 AM 37.9 °F 35.5 °F 33.1 °F 83% 30.35 in 10.0 mi South 3.5 mph - N/A   Overcast
12:31 PM 41.0 °F - 33.8 °F 76% 30.31 in 10.0 mi Calm Calm - N/A   Overcast
12:53 PM 39.0 °F - 33.1 °F 79% 30.35 in 10.0 mi Calm Calm - N/A   Mostly Cloudy
1:03 PM 39.2 °F 37.0 °F 33.8 °F 81% 30.30 in 10.0 mi Variable 3.5 mph - N/A   Partly Cloudy
1:40 PM 41.0 °F - 33.8 °F 76% 30.29 in 10.0 mi Calm Calm - N/A   Mostly Cloudy
1:53 PM 41.0 °F - 33.1 °F 73% 30.33 in 10.0 mi Calm Calm - N/A   Mostly Cloudy
2:53 PM 43.0 °F - 33.1 °F 68% 30.31 in 10.0 mi Calm Calm - N/A   Overcast
3:19 PM 42.8 °F - 32.0 °F 66% 30.28 in 10.0 mi Calm Calm - N/A   Partly Cloudy
3:53 PM 44.1 °F - 32.0 °F 63% 30.32 in 10.0 mi Calm Calm - N/A   Clear
4:53 PM 43.0 °F 40.3 °F 33.1 °F 68% 30.33 in 10.0 mi ENE 4.6 mph - N/A   Clear
5:53 PM 39.9 °F - 32.0 °F 73% 30.35 in 10.0 mi Calm Calm - N/A   Clear
6:53 PM 37.0 °F - 30.9 °F 79% 30.36 in 10.0 mi Calm Calm - N/A   Clear
7:53 PM 35.1 °F - 30.0 °F 82% 30.38 in 9.0 mi Calm Calm - N/A   Clear
8:53 PM 34.0 °F 28.8 °F 28.0 °F 79% 30.40 in 10.0 mi ENE 5.8 mph - N/A   Clear
9:53 PM 32.0 °F - 28.0 °F 85% 30.41 in 8.0 mi Calm Calm - N/A   Clear
10:53 PM 30.9 °F 27.5 °F 27.0 °F 85% 30.43 in 8.0 mi ENE 3.5 mph - N/A   Clear
11:53 PM 30.9 °F 25.2 °F 26.1 °F 82% 30.43 in 8.0 mi ENE 5.8 mph - N/A   Clear